| time (UTC) | temp F | wind direction | speed MPH | gust MPH | rain 1hr in | rain 24hr in | rain mn in | humidity % | barometer mb |
| 20260510173655 | 62 | 108 | 3.0 | 5.0 | 0.00 | 0.00 | 0.00 | 58 | 1018.1 |
| 20260510173151 | 61 | 64 | 4.0 | 5.0 | 0.00 | 0.00 | 0.00 | 52 | 1018.1 |
| 20260510172646 | 61 | 116 | 6.0 | 6.0 | 0.00 | 0.00 | 0.00 | 61 | 1018.2 |
| 20260510172143 | 60 | 90 | 4.0 | 5.0 | 0.00 | 0.00 | 0.00 | 59 | 1017.9 |
| 20260510171640 | 62 | 215 | 0.0 | 2.0 | 0.00 | 0.00 | 0.00 | 61 | 1018.2 |
| 20260510171137 | 62 | 79 | 3.0 | 5.0 | 0.00 | 0.00 | 0.00 | 63 | 1018.4 |
| 20260510170633 | 62 | 102 | 2.0 | 3.0 | 0.00 | 0.00 | 0.00 | 59 | 1018.3 |
| 20260510170130 | 60 | 48 | 4.0 | 8.0 | 0.00 | 0.00 | 0.00 | 57 | 1018.4 |
| 20260510165626 | 61 | 82 | 0.0 | 4.0 | 0.00 | 0.00 | 0.00 | 59 | 1018.2 |
| 20260510165121 | 60 | 36 | 0.0 | 6.0 | 0.00 | 0.00 | 0.00 | 64 | 1018.2 |
| 20260510164620 | 59 | 23 | 0.0 | 5.0 | 0.00 | 0.00 | 0.00 | 63 | 1018.2 |
| 20260510164116 | 59 | 11 | 4.0 | 7.0 | 0.00 | 0.00 | 0.00 | 61 | 1018.1 |
| 20260510163611 | 59 | 88 | 6.0 | 9.0 | 0.00 | 0.00 | 0.00 | 64 | 1017.9 |
| 20260510163108 | 60 | 77 | 0.0 | 4.0 | 0.00 | 0.00 | 0.00 | 61 | 1018.0 |
| 20260510162602 | 59 | 66 | 0.0 | 3.0 | 0.00 | 0.00 | 0.00 | 62 | 1017.9 |
| 20260510162059 | 60 | 75 | 3.0 | 4.0 | 0.00 | 0.00 | 0.00 | 61 | 1017.9 |
| 20260510161555 | 60 | 276 | 0.0 | 2.0 | 0.00 | 0.00 | 0.00 | 57 | 1017.9 |
| 20260510161052 | 59 | 352 | 0.0 | 4.0 | 0.00 | 0.00 | 0.00 | 62 | 1017.9 |
| 20260510160549 | 60 | 324 | 2.0 | 4.0 | 0.00 | 0.00 | 0.00 | 62 | 1017.9 |
| 20260510160048 | 60 | 131 | 0.0 | 4.0 | 0.00 | 0.00 | 0.00 | 61 | 1017.7 |
| 20260510155545 | 60 | 82 | 3.0 | 3.0 | 0.00 | 0.00 | 0.00 | 65 | 1017.5 |
| 20260510155042 | 58 | 312 | 0.0 | 5.0 | 0.00 | 0.00 | 0.00 | 63 | 1017.6 |
| 20260510154537 | 59 | 186 | 0.0 | 3.0 | 0.00 | 0.00 | 0.00 | 64 | 1017.6 |
| 20260510154033 | 58 | 41 | 4.0 | 4.0 | 0.00 | 0.00 | 0.00 | 64 | 1017.6 |
| 20260510153528 | 57 | 72 | 3.0 | 8.0 | 0.00 | 0.00 | 0.00 | 70 | 1017.6 |
| 20260510153025 | 57 | 60 | 3.0 | 3.0 | 0.00 | 0.00 | 0.00 | 70 | 1017.6 |
| 20260510152522 | 57 | 114 | 0.0 | 2.0 | 0.00 | 0.00 | 0.00 | 72 | 1017.6 |
| 20260510152018 | 56 | 45 | 2.0 | 4.0 | 0.00 | 0.00 | 0.00 | 73 | 1017.6 |
| 20260510151515 | 55 | 341 | 2.0 | 5.0 | 0.00 | 0.00 | 0.00 | 73 | 1017.7 |
| 20260510151013 | 55 | 90 | 2.0 | 5.0 | 0.00 | 0.00 | 0.00 | 74 | 1017.3 |
| 20260510150507 | 56 | 90 | 1.0 | 2.0 | 0.00 | 0.00 | 0.00 | 73 | 1017.3 |
| 20260510150004 | 57 | 140 | 0.0 | 2.0 | 0.00 | 0.00 | 0.00 | 75 | 1017.6 |
| 20260510145501 | 56 | 246 | 0.0 | 2.0 | 0.00 | 0.00 | 0.00 | 75 | 1017.5 |
| 20260510144956 | 54 | 54 | 0.0 | 4.0 | 0.00 | 0.00 | 0.00 | 77 | 1017.3 |
| 20260510144454 | 53 | 63 | 2.0 | 2.0 | 0.00 | 0.00 | 0.00 | 82 | 1017.3 |
| 20260510143949 | 53 | 27 | 3.0 | 4.0 | 0.00 | 0.00 | 0.00 | 82 | 1017.0 |
| 20260510143445 | 53 | 180 | 0.0 | 2.0 | 0.00 | 0.00 | 0.00 | 82 | 1016.8 |
| 20260510142942 | 52 | 90 | 1.0 | 3.0 | 0.00 | 0.00 | 0.00 | 82 | 1016.9 |
| 20260510142439 | 52 | 57 | 1.0 | 4.0 | 0.00 | 0.00 | 0.00 | 84 | 1016.8 |
| 20260510141935 | 52 | 57 | 2.0 | 2.0 | 0.00 | 0.00 | 0.00 | 85 | 1016.5 |
| 20260510141432 | 51 | 69 | 0.0 | 2.0 | 0.00 | 0.00 | 0.00 | 85 | 1016.5 |
| 20260510140929 | 51 | 98 | 2.0 | 4.0 | 0.00 | 0.00 | 0.00 | 85 | 1016.9 |
| 20260510140420 | 51 | 124 | 2.0 | 4.0 | 0.00 | 0.00 | 0.00 | 85 | 1016.7 |
| 20260510135919 | 51 | 86 | 3.0 | 3.0 | 0.00 | 0.00 | 0.00 | 86 | 1016.7 |
| 20260510135415 | 51 | 96 | 2.0 | 2.0 | 0.00 | 0.00 | 0.00 | 85 | 1016.3 |
| 20260510134913 | 51 | 29 | 1.0 | 2.0 | 0.00 | 0.00 | 0.00 | 86 | 1016.3 |
| 20260510134409 | 51 | 0 | 0.0 | 2.0 | 0.00 | 0.00 | 0.00 | 86 | 1016.3 |
| 20260510133905 | 51 | 126 | 0.0 | 3.0 | 0.00 | 0.00 | 0.00 | 87 | 1016.4 |
| 20260510133402 | 51 | 49 | 0.0 | 2.0 | 0.00 | 0.00 | 0.00 | 88 | 1016.3 |
| 20260510132857 | 51 | 114 | 0.0 | 2.0 | 0.00 | 0.00 | 0.00 | 88 | 1016.4 |
| 20260510132356 | 51 | 63 | 1.0 | 2.0 | 0.00 | 0.00 | 0.00 | 88 | 1016.2 |
| 20260510131852 | 51 | 99 | 0.0 | 2.0 | 0.00 | 0.00 | 0.00 | 88 | 1016.0 |
| 20260510131350 | 51 | 0 | 0.0 | 1.0 | 0.00 | 0.00 | 0.00 | 88 | 1016.1 |
| 20260510130846 | 51 | 77 | 1.0 | 4.0 | 0.00 | 0.00 | 0.00 | 89 | 1016.0 |
| 20260510130343 | 51 | 106 | 0.0 | 1.0 | 0.00 | 0.00 | 0.00 | 90 | 1015.9 |
| 20260510125840 | 50 | 55 | 2.0 | 4.0 | 0.00 | 0.00 | 0.00 | 90 | 1016.0 |
| 20260510125336 | 51 | 83 | 1.0 | 2.0 | 0.00 | 0.00 | 0.00 | 90 | 1016.1 |
| 20260510124834 | 51 | 33 | 0.0 | 2.0 | 0.00 | 0.00 | 0.00 | 91 | 1016.0 |
| 20260510124330 | 51 | 96 | 0.0 | 2.0 | 0.00 | 0.00 | 0.00 | 91 | 1016.0 |
| 20260510123826 | 51 | 103 | 1.0 | 3.0 | 0.00 | 0.00 | 0.00 | 92 | 1015.9 |
| 20260510123321 | 51 | 98 | 0.0 | 0.0 | 0.00 | 0.00 | 0.00 | 92 | 1015.3 |
| 20260510122818 | 51 | 106 | 0.0 | 2.0 | 0.00 | 0.00 | 0.00 | 92 | 1015.7 |
| 20260510122314 | 51 | 63 | 2.0 | 2.0 | 0.00 | 0.00 | 0.00 | 94 | 1015.5 |
| 20260510121810 | 51 | 98 | 0.0 | 2.0 | 0.00 | 0.00 | 0.00 | 94 | 1015.7 |
| 20260510121308 | 51 | 82 | 0.0 | 2.0 | 0.00 | 0.00 | 0.00 | 94 | 1015.4 |
| 20260510120805 | 51 | 80 | 2.0 | 2.0 | 0.00 | 0.00 | 0.00 | 94 | 1015.2 |
| 20260510120301 | 51 | 49 | 0.0 | 2.0 | 0.00 | 0.00 | 0.00 | 94 | 1015.0 |
| 20260510115757 | 51 | 78 | 1.0 | 2.0 | 0.00 | 0.00 | 0.00 | 95 | 1014.8 |
| 20260510115256 | 51 | 99 | 0.0 | 0.0 | 0.00 | 0.00 | 0.00 | 96 | 1014.6 |
| 20260510114756 | 52 | 99 | 0.0 | 0.0 | 0.00 | 0.00 | 0.00 | 96 | 1014.8 |
| 20260510114253 | 51 | 8 | 0.0 | 0.0 | 0.02 | 0.00 | 0.00 | 95 | 1014.6 |
| 20260510113748 | 51 | 106 | 0.0 | 0.0 | 0.00 | 0.00 | 0.00 | 96 | 1015.0 |
| 20260510113246 | 52 | 76 | 3.0 | 3.0 | 0.00 | 0.00 | 0.00 | 96 | 1014.7 |
| 20260510112741 | 52 | 23 | 0.0 | 1.0 | 0.00 | 0.00 | 0.00 | 96 | 1014.5 |
| 20260510112238 | 52 | 90 | 0.0 | 0.0 | 0.00 | 0.00 | 0.00 | 96 | 1014.5 |
| 20260510111734 | 52 | 114 | 0.0 | 1.0 | 0.00 | 0.00 | 0.00 | 96 | 1014.3 |
| 20260510111232 | 52 | 90 | 0.0 | 1.0 | 0.00 | 0.00 | 0.00 | 96 | 1014.3 |
| 20260510110731 | 52 | 33 | 0.0 | 2.0 | 0.00 | 0.00 | 0.00 | 96 | 1014.2 |
| 20260510110229 | 52 | 82 | 1.0 | 1.0 | 0.00 | 0.00 | 0.00 | 96 | 1013.9 |
| 20260510105728 | 52 | 261 | 0.0 | 0.0 | 0.00 | 0.00 | 0.00 | 96 | 1013.5 |
| 20260510105224 | 52 | 20 | 0.0 | 0.0 | 0.00 | 0.00 | 0.00 | 96 | 1013.7 |
| 20260510104720 | 52 | 71 | 0.0 | 2.0 | 0.00 | 0.00 | 0.00 | 96 | 1013.7 |
| 20260510104218 | 52 | 61 | 2.0 | 2.0 | 0.00 | 0.00 | 0.00 | 97 | 1013.6 |
| 20260510103714 | 52 | 54 | 0.0 | 2.0 | 0.00 | 0.00 | 0.00 | 97 | 1012.9 |
| 20260510103212 | 52 | 90 | 0.0 | 0.0 | 0.00 | 0.00 | 0.00 | 97 | 1013.4 |
| 20260510102711 | 52 | 83 | 1.0 | 1.0 | 0.00 | 0.00 | 0.00 | 96 | 1013.1 |
| 20260510102207 | 52 | 83 | 0.0 | 1.0 | 0.00 | 0.00 | 0.00 | 96 | 1013.1 |
| 20260510101705 | 52 | 106 | 0.0 | 1.0 | 0.00 | 0.00 | 0.00 | 96 | 1012.6 |
| 20260510101203 | 52 | 26 | 0.0 | 0.0 | 0.00 | 0.00 | 0.00 | 96 | 1012.9 |
| 20260510100658 | 52 | 66 | 0.0 | 2.0 | 0.00 | 0.00 | 0.00 | 96 | 1012.7 |
| 20260510100156 | 53 | 26 | 0.0 | 2.0 | 0.00 | 0.00 | 0.00 | 96 | 1012.3 |
| 20260510095652 | 52 | 60 | 2.0 | 2.0 | 0.00 | 0.00 | 0.00 | 96 | 1012.2 |
| 20260510095147 | 52 | 79 | 2.0 | 4.0 | 0.00 | 0.00 | 0.00 | 96 | 1012.2 |
| 20260510094646 | 52 | 106 | 0.0 | 4.0 | 0.00 | 0.00 | 0.00 | 96 | 1012.0 |
| 20260510094142 | 53 | 90 | 0.0 | 3.0 | 0.00 | 0.00 | 0.00 | 96 | 1012.3 |
| 20260510093638 | 52 | 93 | 3.0 | 4.0 | 0.00 | 0.00 | 0.00 | 95 | 1011.9 |
| 20260510093135 | 53 | 77 | 0.0 | 2.0 | 0.00 | 0.00 | 0.00 | 95 | 1011.8 |
| 20260510092632 | 53 | 40 | 2.0 | 2.0 | 0.00 | 0.00 | 0.00 | 95 | 1011.5 |
| 20260510092127 | 53 | 139 | 0.0 | 2.0 | 0.00 | 0.00 | 0.00 | 94 | 1011.6 |
| 20260510091623 | 53 | 90 | 1.0 | 3.0 | 0.00 | 0.00 | 0.00 | 94 | 1011.7 |
| 20260510091120 | 53 | 106 | 2.0 | 2.0 | 0.00 | 0.00 | 0.00 | 94 | 1011.7 |
| 20260510090617 | 53 | 96 | 1.0 | 3.0 | 0.00 | 0.00 | 0.00 | 94 | 1011.3 |
| 20260510090113 | 53 | 84 | 1.0 | 3.0 | 0.00 | 0.00 | 0.00 | 95 | 1011.4 |
| 20260510085608 | 53 | 90 | 0.0 | 2.0 | 0.00 | 0.00 | 0.00 | 96 | 1011.4 |
| 20260510085104 | 53 | 140 | 2.0 | 4.0 | 0.00 | 0.00 | 0.00 | 97 | 1011.4 |
| 20260510084601 | 53 | 100 | 0.0 | 3.0 | 0.00 | 0.00 | 0.00 | 98 | 1011.2 |
| 20260510084057 | 52 | 102 | 1.0 | 2.0 | 0.00 | 0.00 | 0.00 | 98 | 1011.2 |
| 20260510083553 | 52 | 15 | 1.0 | 2.0 | 0.00 | 0.00 | 0.00 | 98 | 1011.0 |
| 20260510083050 | 52 | 109 | 0.0 | 2.0 | 0.00 | 0.00 | 0.00 | 98 | 1011.1 |
| 20260510082547 | 52 | 120 | 0.0 | 0.0 | 0.00 | 0.00 | 0.00 | 98 | 1010.9 |
| 20260510082042 | 52 | 90 | 0.0 | 0.0 | 0.00 | 0.00 | 0.00 | 98 | 1011.1 |
| 20260510081537 | 52 | 90 | 0.0 | 0.0 | 0.00 | 0.00 | 0.00 | 98 | 1010.9 |
| 20260510081033 | 52 | 90 | 0.0 | 1.0 | 0.00 | 0.00 | 0.00 | 98 | 1010.9 |
| 20260510080532 | 53 | 262 | 0.0 | 1.0 | 0.00 | 0.00 | 0.00 | 98 | 1010.7 |
| 20260510080030 | 52 | 106 | 0.0 | 0.0 | 0.00 | 0.00 | 0.00 | 98 | 1010.9 |
| 20260510075527 | 52 | 106 | 0.0 | 0.0 | 0.00 | 0.00 | 0.00 | 98 | 1010.8 |
| 20260510075024 | 52 | 106 | 0.0 | 0.0 | 0.00 | 0.00 | 0.00 | 98 | 1010.6 |
| 20260510074522 | 52 | 106 | 0.0 | 0.0 | 0.00 | 0.00 | 0.00 | 98 | 1010.5 |
| 20260510074016 | 52 | 106 | 0.0 | 0.0 | 0.00 | 0.00 | 0.00 | 97 | 1010.6 |
| 20260510073513 | 52 | 106 | 0.0 | 0.0 | 0.00 | 0.00 | 0.00 | 98 | 1010.5 |
| 20260510073010 | 52 | 106 | 0.0 | 0.0 | 0.00 | 0.00 | 0.00 | 97 | 1010.8 |
| 20260510072506 | 52 | 106 | 0.0 | 0.0 | 0.00 | 0.00 | 0.00 | 97 | 1010.9 |
| 20260510072002 | 52 | 106 | 0.0 | 0.0 | 0.00 | 0.00 | 0.00 | 97 | 1010.8 |
| 20260510071458 | 53 | 82 | 0.0 | 2.0 | 0.00 | 0.00 | 0.00 | 97 | 1010.8 |
| 20260510070956 | 53 | 75 | 0.0 | 0.0 | 0.00 | 0.00 | 0.00 | 97 | 1010.9 |
| 20260510070453 | 53 | 66 | 0.0 | 1.0 | 0.00 | 0.00 | 0.00 | 97 | 1010.7 |
| 20260510065949 | 53 | 106 | 0.0 | 0.0 | 0.00 | 0.00 | 0.00 | 97 | 1010.9 |
| 20260510065446 | 53 | 106 | 0.0 | 0.0 | 0.00 | 0.00 | 0.00 | 96 | 1010.9 |
| 20260510064942 | 53 | 106 | 0.0 | 0.0 | 0.00 | 0.00 | 0.00 | 96 | 1010.7 |
| 20260510064440 | 53 | 106 | 0.0 | 0.0 | 0.00 | 0.00 | 0.00 | 96 | 1010.9 |
| 20260510063936 | 53 | 279 | 0.0 | 1.0 | 0.00 | 0.00 | 0.00 | 96 | 1010.7 |
| 20260510063432 | 53 | 270 | 0.0 | 0.0 | 0.00 | 0.00 | 0.00 | 96 | 1010.6 |
| 20260510062930 | 53 | 246 | 0.0 | 0.0 | 0.00 | 0.00 | 0.00 | 96 | 1010.5 |
| 20260510062425 | 54 | 246 | 0.0 | 0.0 | 0.00 | 0.00 | 0.00 | 96 | 1010.5 |
| 20260510061921 | 54 | 270 | 0.0 | 0.0 | 0.00 | 0.00 | 0.00 | 95 | 1010.5 |
| 20260510061418 | 54 | 270 | 0.0 | 0.0 | 0.00 | 0.00 | 0.00 | 95 | 1010.3 |
| 20260510060914 | 54 | 285 | 0.0 | 0.0 | 0.00 | 0.00 | 0.00 | 96 | 1010.7 |
| 20260510060410 | 54 | 285 | 0.0 | 0.0 | 0.00 | 0.00 | 0.00 | 96 | 1010.7 |
| 20260510055907 | 54 | 285 | 0.0 | 0.0 | 0.00 | 0.00 | 0.00 | 96 | 1010.5 |
| 20260510055402 | 54 | 270 | 0.0 | 0.0 | 0.00 | 0.00 | 0.00 | 96 | 1010.8 |
| 20260510054901 | 54 | 237 | 0.0 | 1.0 | 0.00 | 0.00 | 0.00 | 96 | 1010.8 |
| 20260510054356 | 54 | 270 | 0.0 | 0.0 | 0.00 | 0.00 | 0.00 | 95 | 1011.0 |
| 20260510053851 | 55 | 294 | 1.0 | 1.0 | 0.00 | 0.00 | 0.00 | 95 | 1011.0 |
| 20260510053347 | 55 | 270 | 0.0 | 0.0 | 0.00 | 0.00 | 0.00 | 95 | 1011.2 |
| 20260510052844 | 56 | 90 | 0.0 | 0.0 | 0.00 | 0.00 | 0.00 | 94 | 1011.2 |
| 20260510052339 | 56 | 90 | 0.0 | 0.0 | 0.00 | 0.00 | 0.00 | 93 | 1011.0 |
| 20260510051836 | 56 | 262 | 1.0 | 1.0 | 0.00 | 0.00 | 0.00 | 92 | 1010.8 |
| 20260510051332 | 56 | 36 | 2.0 | 3.0 | 0.00 | 0.00 | 0.00 | 92 | 1011.4 |
| 20260510050830 | 56 | 38 | 5.0 | 6.0 | 0.00 | 0.00 | 0.00 | 94 | 1011.4 |
| 20260510050326 | 55 | 109 | 3.0 | 5.0 | 0.00 | 0.00 | 0.00 | 96 | 1011.6 |
| 20260510045823 | 55 | 112 | 2.0 | 2.0 | 0.00 | 0.00 | 0.00 | 96 | 1010.5 |
| 20260510045320 | 55 | 270 | 0.0 | 0.0 | 0.00 | 0.00 | 0.00 | 96 | 1010.6 |
| 20260510044817 | 55 | 270 | 0.0 | 0.0 | 0.00 | 0.00 | 0.00 | 96 | 1010.3 |
| 20260510044314 | 55 | 270 | 0.0 | 0.0 | 0.00 | 0.00 | 0.00 | 96 | 1010.3 |
| 20260510043810 | 55 | 270 | 1.0 | 1.0 | 0.00 | 0.00 | 0.00 | 96 | 1009.9 |
| 20260510043306 | 55 | 270 | 0.0 | 0.0 | 0.00 | 0.00 | 0.00 | 96 | 1010.2 |
| 20260510042804 | 55 | 270 | 0.0 | 1.0 | 0.00 | 0.00 | 0.00 | 97 | 1010.2 |
| 20260510042259 | 55 | 270 | 0.0 | 0.0 | 0.00 | 0.00 | 0.00 | 97 | 1010.3 |
| 20260510041756 | 55 | 270 | 0.0 | 0.0 | 0.00 | 0.00 | 0.00 | 97 | 1010.2 |
| 20260510041254 | 55 | 246 | 0.0 | 1.0 | 0.00 | 0.00 | 0.00 | 97 | 1010.1 |
| 20260510040751 | 55 | 279 | 0.0 | 0.0 | 0.00 | 0.00 | 0.00 | 97 | 1009.9 |
| 20260510040242 | 55 | 279 | 0.0 | 0.0 | 0.00 | 0.00 | 0.00 | 97 | 1009.7 |
| 20260510035737 | 56 | 279 | 0.0 | 0.0 | 0.00 | 0.03 | 0.03 | 97 | 1009.9 |
| 20260510035233 | 56 | 254 | 0.0 | 0.0 | 0.00 | 0.03 | 0.03 | 97 | 1009.6 |
| 20260510034729 | 56 | 254 | 0.0 | 1.0 | 0.00 | 0.03 | 0.03 | 97 | 1009.9 |
| 20260510034228 | 56 | 270 | 0.0 | 0.0 | 0.00 | 0.03 | 0.03 | 97 | 1009.8 |
| 20260510033723 | 56 | 270 | 0.0 | 0.0 | 0.00 | 0.03 | 0.03 | 97 | 1009.9 |
| 20260510033221 | 56 | 270 | 0.0 | 0.0 | 0.00 | 0.03 | 0.03 | 97 | 1009.7 |
| 20260510032717 | 56 | 254 | 0.0 | 0.0 | 0.00 | 0.03 | 0.03 | 97 | 1009.9 |
| 20260510032213 | 56 | 254 | 0.0 | 0.0 | 0.00 | 0.03 | 0.03 | 97 | 1009.6 |
| 20260510031708 | 56 | 254 | 0.0 | 0.0 | 0.00 | 0.03 | 0.03 | 97 | 1009.7 |
| 20260510031205 | 56 | 254 | 0.0 | 1.0 | 0.00 | 0.03 | 0.03 | 97 | 1009.6 |
| 20260510030704 | 57 | 270 | 0.0 | 2.0 | 0.00 | 0.03 | 0.03 | 97 | 1009.7 |
| 20260510030202 | 57 | 270 | 0.0 | 0.0 | 0.00 | 0.03 | 0.03 | 97 | 1009.6 |
| 20260510025659 | 57 | 265 | 2.0 | 2.0 | 0.00 | 0.03 | 0.03 | 98 | 1009.5 |
| 20260510025156 | 57 | 262 | 0.0 | 2.0 | 0.00 | 0.03 | 0.03 | 98 | 1009.6 |
| 20260510024653 | 57 | 270 | 0.0 | 2.0 | 0.00 | 0.03 | 0.03 | 97 | 1009.5 |
| 20260510024149 | 57 | 0 | 0.0 | 2.0 | 0.00 | 0.03 | 0.03 | 97 | 1009.6 |
| 20260510023645 | 57 | 114 | 0.0 | 2.0 | 0.00 | 0.03 | 0.03 | 97 | 1009.7 |
| 20260510023143 | 57 | 8 | 0.0 | 3.0 | 0.00 | 0.03 | 0.03 | 97 | 1009.7 |
| 20260510022637 | 57 | 237 | 2.0 | 2.0 | 0.00 | 0.03 | 0.03 | 97 | 1009.5 |
| 20260510022132 | 57 | 229 | 0.0 | 2.0 | 0.02 | 0.03 | 0.03 | 96 | 1009.5 |
| 20260510021628 | 57 | 270 | 1.0 | 2.0 | 0.02 | 0.03 | 0.03 | 96 | 1009.5 |
| 20260510021126 | 58 | 233 | 2.0 | 2.0 | 0.02 | 0.03 | 0.03 | 95 | 1009.7 |
| 20260510020620 | 58 | 234 | 0.0 | 1.0 | 0.02 | 0.03 | 0.03 | 94 | 1009.4 |
| 20260510020115 | 58 | 98 | 0.0 | 2.0 | 0.02 | 0.02 | 0.02 | 92 | 1009.8 |
| 20260510015612 | 59 | 286 | 0.0 | 2.0 | 0.02 | 0.02 | 0.02 | 90 | 1009.6 |
| 20260510015108 | 60 | 353 | 0.0 | 0.0 | 0.00 | 0.02 | 0.02 | 85 | 1009.8 |
| 20260510014604 | 61 | 23 | 2.0 | 4.0 | 0.00 | 0.02 | 0.02 | 80 | 1009.9 |
| 20260510014102 | 62 | 180 | 0.0 | 5.0 | 0.00 | 0.02 | 0.02 | 77 | 1009.2 |
| 20260510013556 | 60 | 90 | 1.0 | 2.0 | 0.00 | 0.02 | 0.02 | 82 | 1009.0 |
| 20260510013052 | 62 | 17 | 2.0 | 2.0 | 0.00 | 0.02 | 0.02 | 78 | 1009.0 |
| 20260510012546 | 62 | 107 | 0.0 | 4.0 | 0.00 | 0.02 | 0.02 | 73 | 1009.1 |
| 20260510012043 | 64 | 90 | 0.0 | 3.0 | 0.00 | 0.02 | 0.02 | 69 | 1009.3 |
| 20260510011542 | 63 | 143 | 2.0 | 2.0 | 0.00 | 0.02 | 0.02 | 71 | 1008.5 |
| 20260510011038 | 62 | 106 | 1.0 | 1.0 | 0.00 | 0.02 | 0.02 | 72 | 1008.3 |
| 20260510010535 | 62 | 90 | 0.0 | 0.0 | 0.00 | 0.02 | 0.02 | 73 | 1007.9 |
| 20260510010032 | 62 | 90 | 0.0 | 0.0 | 0.00 | 0.02 | 0.02 | 72 | 1008.1 |
| 20260510005527 | 63 | 261 | 0.0 | 0.0 | 0.00 | 0.02 | 0.02 | 71 | 1007.7 |
| 20260510005026 | 63 | 261 | 0.0 | 0.0 | 0.00 | 0.02 | 0.02 | 71 | 1007.5 |
| 20260510004523 | 63 | 261 | 0.0 | 0.0 | 0.00 | 0.02 | 0.02 | 69 | 1007.5 |
| 20260510004021 | 63 | 23 | 0.0 | 1.0 | 0.00 | 0.02 | 0.02 | 70 | 1007.7 |
| 20260510003517 | 63 | 8 | 0.0 | 0.0 | 0.00 | 0.02 | 0.02 | 69 | 1007.9 |
| 20260510003013 | 63 | 90 | 0.0 | 1.0 | 0.00 | 0.02 | 0.02 | 68 | 1007.9 |
| 20260510002508 | 64 | 270 | 0.0 | 0.0 | 0.00 | 0.02 | 0.02 | 68 | 1007.8 |
| 20260510002005 | 64 | 279 | 0.0 | 0.0 | 0.00 | 0.02 | 0.02 | 68 | 1007.5 |
| 20260510001503 | 64 | 90 | 0.0 | 2.0 | 0.00 | 0.02 | 0.02 | 66 | 1007.9 |
| 20260510001001 | 64 | 106 | 0.0 | 2.0 | 0.00 | 0.02 | 0.02 | 67 | 1007.8 |
| 20260510000456 | 64 | 117 | 0.0 | 2.0 | 0.00 | 0.02 | 0.02 | 66 | 1007.5 |
| 20260509235953 | 64 | 234 | 0.0 | 0.0 | 0.00 | 0.02 | 0.02 | 66 | 1008.0 |
| 20260509235450 | 65 | 209 | 0.0 | 2.0 | 0.00 | 0.02 | 0.02 | 62 | 1007.8 |
| 20260509234946 | 65 | 32 | 0.0 | 2.0 | 0.00 | 0.02 | 0.02 | 66 | 1007.8 |
| 20260509234443 | 66 | 14 | 1.0 | 5.0 | 0.00 | 0.02 | 0.02 | 59 | 1007.7 |
| 20260509233941 | 66 | 81 | 0.0 | 2.0 | 0.00 | 0.02 | 0.02 | 62 | 1007.6 |
| 20260509233438 | 67 | 66 | 2.0 | 3.0 | 0.00 | 0.02 | 0.02 | 61 | 1007.5 |
| 20260509232934 | 67 | 99 | 0.0 | 4.0 | 0.00 | 0.02 | 0.02 | 58 | 1007.6 |
| 20260509232432 | 67 | 81 | 2.0 | 2.0 | 0.00 | 0.02 | 0.02 | 60 | 1007.4 |
| 20260509231927 | 68 | 123 | 2.0 | 2.0 | 0.00 | 0.02 | 0.02 | 64 | 1007.3 |
| 20260509231424 | 68 | 70 | 0.0 | 5.0 | 0.00 | 0.02 | 0.02 | 59 | 1007.3 |
| 20260509230922 | 68 | 61 | 3.0 | 3.0 | 0.00 | 0.02 | 0.02 | 63 | 1007.3 |
| 20260509230419 | 68 | 68 | 2.0 | 3.0 | 0.00 | 0.02 | 0.02 | 60 | 1007.2 |
| 20260509225915 | 68 | 41 | 2.0 | 5.0 | 0.00 | 0.02 | 0.02 | 61 | 1007.1 |
| 20260509225412 | 68 | 81 | 0.0 | 4.0 | 0.00 | 0.02 | 0.02 | 62 | 1007.1 |
| 20260509224908 | 69 | 90 | 2.0 | 4.0 | 0.00 | 0.02 | 0.02 | 58 | 1007.2 |
| 20260509224403 | 69 | 345 | 0.0 | 3.0 | 0.00 | 0.02 | 0.02 | 60 | 1007.1 |
| 20260509223901 | 70 | 81 | 0.0 | 3.0 | 0.00 | 0.02 | 0.02 | 59 | 1007.0 |
| 20260509223357 | 70 | 66 | 0.0 | 2.0 | 0.00 | 0.02 | 0.02 | 60 | 1007.5 |
| 20260509222855 | 70 | 68 | 0.0 | 3.0 | 0.00 | 0.02 | 0.02 | 59 | 1007.3 |
| 20260509222355 | 70 | 352 | 0.0 | 2.0 | 0.00 | 0.02 | 0.02 | 58 | 1007.5 |
| 20260509221850 | 70 | 32 | 0.0 | 2.0 | 0.00 | 0.02 | 0.02 | 54 | 1007.3 |
| 20260509221348 | 70 | 334 | 1.0 | 5.0 | 0.00 | 0.02 | 0.02 | 58 | 1007.3 |
| 20260509220843 | 70 | 345 | 0.0 | 2.0 | 0.00 | 0.02 | 0.02 | 55 | 1007.4 |
| 20260509220339 | 70 | 337 | 1.0 | 3.0 | 0.00 | 0.02 | 0.02 | 56 | 1007.5 |
| 20260509215835 | 71 | 121 | 0.0 | 4.0 | 0.00 | 0.02 | 0.02 | 57 | 1007.5 |
| 20260509215332 | 71 | 63 | 0.0 | 3.0 | 0.00 | 0.02 | 0.02 | 57 | 1007.6 |
| 20260509214829 | 71 | 265 | 0.0 | 2.0 | 0.00 | 0.02 | 0.02 | 56 | 1007.7 |
| 20260509214326 | 72 | 18 | 3.0 | 5.0 | 0.00 | 0.02 | 0.02 | 55 | 1007.6 |
| 20260509213823 | 73 | 103 | 0.0 | 2.0 | 0.00 | 0.02 | 0.02 | 52 | 1007.6 |
| 20260509213318 | 72 | 10 | 0.0 | 4.0 | 0.00 | 0.02 | 0.02 | 57 | 1007.4 |
| 20260509212816 | 71 | 0 | 0.0 | 3.0 | 0.00 | 0.02 | 0.02 | 55 | 1007.5 |
| 20260509212313 | 73 | 20 | 0.0 | 4.0 | 0.00 | 0.02 | 0.02 | 57 | 1007.4 |
| 20260509211809 | 73 | 0 | 0.0 | 3.0 | 0.00 | 0.02 | 0.02 | 55 | 1007.5 |
| 20260509211305 | 72 | 55 | 4.0 | 4.0 | 0.00 | 0.02 | 0.02 | 55 | 1007.5 |
| 20260509210802 | 71 | 34 | 2.0 | 5.0 | 0.00 | 0.02 | 0.02 | 57 | 1007.8 |
| 20260509210300 | 71 | 23 | 0.0 | 2.0 | 0.00 | 0.02 | 0.02 | 53 | 1007.8 |
| 20260509205759 | 72 | 53 | 2.0 | 4.0 | 0.00 | 0.02 | 0.02 | 56 | 1007.9 |
| 20260509205254 | 71 | 57 | 2.0 | 4.0 | 0.00 | 0.02 | 0.02 | 53 | 1007.8 |
| 20260509204750 | 71 | 86 | 2.0 | 4.0 | 0.00 | 0.02 | 0.02 | 57 | 1007.9 |
| 20260509204247 | 70 | 43 | 4.0 | 4.0 | 0.00 | 0.02 | 0.02 | 59 | 1007.8 |
| 20260509203743 | 70 | 67 | 0.0 | 6.0 | 0.00 | 0.02 | 0.02 | 56 | 1007.9 |
| 20260509203241 | 69 | 14 | 1.0 | 5.0 | 0.00 | 0.02 | 0.02 | 58 | 1007.9 |
| 20260509202736 | 71 | 7 | 1.0 | 8.0 | 0.00 | 0.02 | 0.02 | 61 | 1007.9 |
| 20260509202232 | 71 | 48 | 2.0 | 4.0 | 0.00 | 0.02 | 0.02 | 58 | 1008.0 |
| 20260509201727 | 70 | 352 | 0.0 | 2.0 | 0.00 | 0.02 | 0.02 | 56 | 1008.0 |
| 20260509201224 | 69 | 24 | 0.0 | 5.0 | 0.00 | 0.02 | 0.02 | 59 | 1008.0 |
| 20260509200720 | 69 | 346 | 0.0 | 2.0 | 0.00 | 0.02 | 0.02 | 58 | 1008.1 |
| 20260509200215 | 69 | 63 | 3.0 | 5.0 | 0.00 | 0.02 | 0.02 | 60 | 1008.2 |
| 20260509195711 | 69 | 16 | 0.0 | 2.0 | 0.00 | 0.02 | 0.02 | 58 | 1008.2 |
| 20260509195207 | 69 | 0 | 0.0 | 5.0 | 0.00 | 0.02 | 0.02 | 61 | 1008.6 |
| 20260509194701 | 68 | 49 | 3.0 | 3.0 | 0.00 | 0.02 | 0.02 | 62 | 1008.3 |
| 20260509194158 | 68 | 90 | 1.0 | 5.0 | 0.00 | 0.02 | 0.02 | 63 | 1008.6 |
| 20260509193654 | 66 | 47 | 3.0 | 5.0 | 0.00 | 0.02 | 0.02 | 65 | 1008.7 |
| 20260509193149 | 66 | 35 | 0.0 | 2.0 | 0.00 | 0.02 | 0.02 | 65 | 1008.7 |
| 20260509192646 | 67 | 15 | 0.0 | 2.0 | 0.00 | 0.02 | 0.02 | 61 | 1008.8 |
| 20260509192142 | 67 | 90 | 0.0 | 2.0 | 0.00 | 0.02 | 0.02 | 66 | 1009.0 |
| 20260509191642 | 68 | 60 | 0.0 | 2.0 | 0.00 | 0.02 | 0.02 | 64 | 1008.8 |
| 20260509191138 | 68 | 56 | 0.0 | 2.0 | 0.00 | 0.02 | 0.02 | 65 | 1008.7 |
| 20260509190635 | 69 | 40 | 0.0 | 3.0 | 0.00 | 0.02 | 0.02 | 64 | 1008.9 |
| 20260509190132 | 68 | 186 | 1.0 | 5.0 | 0.00 | 0.02 | 0.02 | 62 | 1008.9 |
| 20260509185630 | 68 | 84 | 3.0 | 8.0 | 0.00 | 0.02 | 0.02 | 65 | 1008.9 |
| 20260509185125 | 68 | 328 | 2.0 | 2.0 | 0.00 | 0.02 | 0.02 | 64 | 1008.9 |
| 20260509184624 | 66 | 79 | 2.0 | 3.0 | 0.00 | 0.02 | 0.02 | 68 | 1009.2 |
| 20260509184120 | 66 | 94 | 2.0 | 5.0 | 0.00 | 0.02 | 0.02 | 66 | 1009.0 |
| 20260509183616 | 67 | 80 | 4.0 | 5.0 | 0.00 | 0.02 | 0.02 | 66 | 1009.1 |
| 20260509183112 | 64 | 71 | 3.0 | 5.0 | 0.00 | 0.02 | 0.02 | 70 | 1009.1 |
| 20260509182608 | 66 | 15 | 0.0 | 3.0 | 0.00 | 0.02 | 0.02 | 67 | 1009.0 |
| 20260509182105 | 67 | 106 | 0.0 | 4.0 | 0.00 | 0.02 | 0.02 | 68 | 1009.2 |
| 20260509181603 | 64 | 114 | 0.0 | 4.0 | 0.00 | 0.02 | 0.02 | 71 | 1009.3 |
| 20260509181100 | 65 | 63 | 1.0 | 2.0 | 0.00 | 0.02 | 0.02 | 70 | 1009.0 |
| 20260509180556 | 64 | 69 | 3.0 | 3.0 | 0.00 | 0.02 | 0.02 | 70 | 1009.3 |
| 20260509180054 | 64 | 40 | 0.0 | 2.0 | 0.00 | 0.02 | 0.02 | 74 | 1009.4 |
| 20260509175549 | 64 | 21 | 0.0 | 5.0 | 0.00 | 0.02 | 0.02 | 72 | 1009.2 |
| 20260509175046 | 65 | 254 | 1.0 | 5.0 | 0.00 | 0.02 | 0.02 | 71 | 1009.5 |
| 20260509174542 | 64 | 101 | 4.0 | 6.0 | 0.00 | 0.02 | 0.02 | 78 | 1009.1 |
| 20260509174038 | 63 | 90 | 0.0 | 7.0 | 0.00 | 0.02 | 0.02 | 75 | 1009.2 |